Wind_Speed
23 25 28 31 33 35 37 38 39 40 40 40 40 40 40 42 44 43 42 41 39 35 32 30 28 26 26 26 27 27 26 26 26 25 25 23 21 20 21 21 21 20 21 21
20 24 26 29 32 33 35 36 37 38 39 40 40 39 41 43 44 44 43 42 41 39 36 33 31 29 27 27 28 30 29 29 29 29 27 26 25 24 23 22 22 22 21 21
21 23 26 28 31 32 34 35 36 38 39 39 40 39 40 42 44 44 44 43 42 41 39 36 33 31 30 29 30 32 33 34 34 33 32 31 29 27 25 23 22 22 22 21
20 22 25 28 31 33 34 35 36 37 36 36 37 38 36 37 39 41 41 42 42 41 39 38 35 34 34 34 35 36 36 37 39 39 36 33 29 27 25 24 23 23 24 24
24 27 29 32 35 37 38 38 39 39 38 37 35 38 37 36 35 35 36 37 39 39 38 37 36 35 36 38 38 39 38 40 41 39 36 33 31 28 26 24 24 25 26 25
31 35 37 39 41 42 43 43 44 44 43 41 37 38 38 35 32 30 29 30 33 35 36 35 35 36 38 40 41 41 40 44 44 40 37 34 31 28 25 23 23 24 24 24
36 40 43 45 46 46 47 47 48 48 47 44 39 37 36 31 27 24 23 24 27 30 33 35 36 37 39 40 42 43 43 46 44 40 35 33 30 26 22 21 22 23 24 24
42 44 47 49 50 50 49 49 47 47 46 42 37 35 33 27 24 21 20 21 23 27 30 34 37 38 39 39 41 41 44 44 41 40 37 32 27 23 20 19 20 22 23 24
46 46 47 48 48 47 46 44 43 41 38 35 31 31 28 24 23 22 21 20 21 24 28 32 35 37 37 38 38 39 42 39 37 35 30 27 22 18 17 19 20 22 23 25
40 37 35 34 33 31 30 26 22 22 22 21 22 23 22 22 22 21 21 20 19 21 24 28 31 34 35 34 34 34 35 32 29 27 22 18 14 14 17 19 20 22 24 26
29 25 23 21 19 17 15 13 11 10 11 12 13 14 15 15 18 17 16 18 17 16 17 20 24 27 27 28 26 25 25 22 20 17 14 12 13 15 17 19 22 23 25 26
27 25 23 21 19 16 14 11 7 3 1 4 5 5 7 9 11 13 13 14 14 11 10 10 10 9 8 7 9 11 12 12 11 10 10 12 13 15 17 19 21 21 21 22
28 27 24 23 23 21 18 16 12 10 8 6 3 1 2 4 6 7 8 8 8 6 4 3 4 4 5 7 8 7 5 5 5 7 10 12 13 14 16 17 17 18 18 18
29 27 26 25 24 23 22 20 17 14 12 9 6 5 2 1 1 3 5 6 7 5 3 2 5 6 6 5 4 2 2 4 7 9 11 13 13 13 14 14 15 16 17 18
29 28 27 26 24 24 22 20 17 16 14 12 10 9 7 5 4 5 5 6 7 7 5 4 4 5 4 3 2 3 6 8 11 12 14 14 13 13 12 14 16 17 18 19
29 27 27 26 25 24 23 20 19 17 16 16 15 14 12 10 8 6 6 6 6 7 6 5 3 2 2 2 5 7 10 11 13 14 14 13 13 13 14 17 19 19 20 20
26 26 26 25 24 24 23 21 19 18 18 19 19 19 16 14 12 11 9 8 6 4 4 3 3 4 5 6 7 10 11 12 13 13 13 14 15 16 18 19 20 21 21 21
24 23 23 23 23 22 22 20 17 15 14 16 17 19 19 18 16 16 16 15 11 8 5 3 2 3 3 5 6 7 9 10 11 13 14 16 17 18 19 20 21 21 21 21
23 22 21 21 21 22 21 20 17 13 12 13 15 16 18 18 19 19 19 18 16 13 10 8 8 7 6 6 7 8 9 11 12 14 16 17 18 19 20 20 20 20 20 20
22 22 20 20 19 19 19 18 17 15 11 11 12 14 15 18 18 17 18 17 15 13 11 10 9 8 8 8 9 10 11 13 14 15 16 17 18 19 19 19 19 19 19 19
23 22 21 19 19 18 17 16 16 13 11 10 10 11 13 14 14 14 14 14 13 11 10 9 9 8 8 9 10 11 12 13 14 16 17 18 19 19 20 20 20 20 20 19
26 24 23 20 19 18 15 13 13 11 10 8 8 9 10 10 10 11 11 12 12 11 11 11 10 10 10 11 12 13 15 16 17 17 17 18 19 19 20 21 20 19 18 17
27 27 25 23 21 18 14 11 10 8 6 5 5 6 6 7 8 9 10 11 12 12 13 12 12 12 13 14 16 17 18 18 18 18 18 18 19 19 19 18 17 16 15 14
28 29 28 27 25 20 15 11 9 7 4 3 2 2 3 5 6 7 9 11 12 13 13 13 13 13 14 16 17 18 18 18 19 19 19 19 18 17 17 15 14 13 12 12
28 30 30 30 29 25 20 14 9 6 4 2 1 1 1 3 5 6 8 10 11 13 14 14 14 14 14 15 16 16 17 17 19 20 20 20 18 17 16 14 13 12 11 11
25 29 31 32 32 30 25 17 11 6 4 3 2 2 3 4 5 6 8 9 10 12 14 14 14 14 14 15 15 15 15 17 19 20 20 20 19 18 17 16 14 13 13 12
Wind_Direction
255 257 258 260 261 262 264 265 267 268 268 269 270 270 270 269 268 266 265 264 263 262 259 259 262 261 260 264 270 274 275 273 269 265 263 261 258 257 258 263 269 273 274 271
257 258 261 262 263 264 265 266 267 267 269 270 270 270 270 268 267 265 263 262 261 259 257 256 257 257 252 256 264 270 272 269 264 259 255 253 252 254 257 263 267 270 269 266
264 265 263 263 264 265 266 266 267 268 270 272 273 272 272 272 270 266 263 261 259 259 257 256 256 252 248 252 260 266 268 268 263 255 248 245 245 249 253 259 263 265 265 265
269 268 266 266 266 266 265 265 267 268 271 274 276 277 275 276 274 270 266 261 258 258 258 256 254 250 246 250 256 260 263 263 262 256 247 241 240 244 248 253 256 259 261 264
278 275 272 269 268 267 267 267 267 269 271 274 280 283 282 282 279 274 268 262 257 254 254 253 252 251 248 248 254 257 258 257 256 252 246 240 238 240 243 248 253 256 260 265
283 279 277 276 275 276 275 275 275 274 275 279 283 286 286 286 282 277 270 261 254 251 249 248 249 248 247 248 251 252 253 252 251 249 245 239 235 235 237 244 252 256 262 268
289 288 286 285 285 284 284 285 285 283 282 285 286 286 287 285 278 273 267 258 249 245 243 243 245 245 245 247 248 249 248 248 248 248 245 237 234 232 237 246 253 261 267 273
296 294 292 290 288 287 286 285 285 285 285 286 284 282 282 276 270 268 261 252 244 240 239 240 241 242 242 245 247 246 246 249 249 249 246 240 236 238 244 252 260 268 275 280
306 302 299 296 295 292 290 287 284 281 280 277 274 273 269 261 258 259 253 246 243 242 242 242 243 244 244 245 248 247 246 249 250 249 244 240 241 245 251 259 268 278 284 288
316 313 311 309 308 305 301 296 286 275 269 264 260 256 253 249 250 255 253 246 246 249 251 250 247 248 248 249 249 249 246 246 243 242 239 238 241 252 264 274 283 288 291 293
348 348 348 348 344 338 328 318 303 280 256 242 241 248 249 246 247 252 255 254 253 257 263 264 262 260 259 256 252 245 237 230 229 230 229 237 255 269 279 286 290 293 295 297
16 17 17 18 19 17 14 16 23 61 152 206 214 234 237 235 243 249 255 253 252 264 285 294 294 288 267 234 215 200 198 198 205 221 239 255 269 282 289 293 295 297 299 300
29 31 34 40 41 39 40 46 58 75 83 97 104 81 202 218 234 239 239 235 231 251 281 345 47 81 118 127 136 144 158 182 226 258 274 283 290 296 296 298 300 302 301 299
32 35 39 42 44 47 51 55 62 74 79 86 82 64 78 138 220 188 184 191 195 188 170 122 92 103 114 128 136 166 227 262 283 289 302 306 308 307 303 302 303 302 299 297
34 37 40 45 49 54 58 63 67 72 77 78 69 62 65 73 89 114 134 153 167 170 168 157 132 128 136 163 218 272 292 299 303 308 313 313 311 310 306 304 304 302 299 297
35 39 43 49 52 55 58 61 67 72 73 72 71 68 68 76 79 89 104 135 167 181 183 180 179 182 209 272 287 295 298 299 300 304 308 309 307 303 303 304 303 300 298 296
34 39 43 48 50 51 54 56 64 73 74 72 71 68 70 77 76 79 90 108 124 150 187 208 232 255 273 284 296 301 299 297 298 301 304 305 304 304 304 304 302 300 298 296
29 31 34 38 40 44 43 45 53 63 69 69 69 73 75 79 77 76 80 85 86 84 85 72 17 334 309 301 306 312 311 311 309 307 306 307 306 305 305 304 302 299 296 294
25 26 26 26 29 31 32 34 39 48 62 70 77 81 82 82 78 77 76 75 72 68 63 55 42 32 24 12 357 343 332 323 315 311 309 307 306 305 304 303 301 299 296 294
19 20 20 20 21 24 27 29 33 41 56 66 77 82 86 86 84 79 77 74 69 64 57 46 35 24 13 359 347 337 330 323 318 313 309 306 304 303 303 302 300 299 296 294
17 15 12 10 11 16 21 24 26 37 50 71 80 84 85 84 80 76 73 70 65 57 47 37 26 15 4 356 348 340 333 327 322 317 313 310 309 308 307 306 304 302 299 295
18 16 13 7 3 5 8 14 21 33 49 72 86 87 81 74 69 66 62 57 51 43 37 31 24 17 11 5 357 349 343 339 335 331 328 323 320 317 315 313 311 308 304 298
18 17 14 11 6 1 360 2 11 27 48 68 87 91 80 67 58 54 50 44 40 38 35 31 26 20 13 7 0 355 352 350 349 346 341 337 333 329 326 323 320 316 311 306
18 17 16 15 11 6 2 357 0 10 34 64 92 91 76 62 54 48 42 38 37 35 32 27 22 17 13 8 4 1 0 0 360 358 355 353 350 346 342 339 336 331 327 324
14 15 16 16 15 14 10 4 357 355 2 6 351 1 29 39 40 37 33 33 33 31 28 24 19 18 17 15 11 10 10 10 9 9 9 8 7 5 4 2 360 356 352 348
7 10 13 15 16 17 15 12 5 350 336 328 313 316 332 350 11 21 24 27 29 28 24 20 19 21 21 20 20 21 20 19 18 19 19 19 20 21 21 22 21 20 17 12
Height
5854 5854 5852 5851 5850 5849 5848 5847 5846 5846 5845 5846 5846 5847 5846 5844 5843 5846 5848 5849 5852 5854 5856 5857 5858 5859 5860 5860 5860 5859 5858 5858 5858 5858 5857 5857 5857 5857 5857 5857 5857 5858 5858 5858
5850 5848 5847 5845 5843 5841 5839 5838 5837 5836 5835 5835 5836 5837 5835 5833 5833 5835 5837 5840 5842 5845 5847 5849 5851 5851 5853 5853 5853 5852 5851 5851 5851 5850 5850 5849 5850 5850 5851 5851 5851 5851 5852 5852
5846 5844 5841 5838 5835 5833 5831 5830 5828 5827 5826 5825 5825 5827 5825 5823 5823 5824 5826 5829 5832 5835 5838 5841 5843 5844 5845 5846 5846 5846 5844 5843 5842 5841 5840 5840 5841 5843 5844 5844 5845 5845 5845 5846
5841 5838 5835 5832 5829 5826 5824 5821 5819 5818 5817 5816 5815 5815 5816 5815 5813 5813 5815 5818 5821 5825 5829 5832 5834 5835 5836 5838 5838 5838 5837 5835 5833 5832 5831 5831 5833 5835 5837 5838 5839 5839 5839 5840
5836 5832 5829 5825 5821 5818 5815 5812 5810 5809 5807 5807 5806 5804 5806 5806 5805 5805 5805 5807 5810 5814 5818 5822 5824 5826 5828 5829 5829 5830 5830 5827 5825 5823 5824 5826 5827 5828 5830 5832 5833 5834 5834 5834
5829 5824 5820 5815 5810 5806 5803 5800 5798 5797 5796 5797 5797 5795 5795 5797 5796 5797 5797 5798 5801 5804 5808 5812 5814 5816 5817 5818 5820 5821 5820 5818 5817 5817 5819 5820 5821 5822 5823 5825 5827 5828 5828 5827
5822 5814 5808 5803 5799 5795 5791 5788 5785 5783 5783 5785 5786 5785 5787 5788 5789 5789 5790 5791 5792 5796 5799 5802 5804 5806 5807 5808 5810 5810 5810 5809 5809 5811 5812 5813 5814 5815 5817 5819 5820 5821 5821 5821
5811 5804 5796 5789 5784 5780 5777 5774 5773 5770 5771 5773 5774 5775 5779 5781 5782 5783 5784 5785 5786 5788 5790 5792 5794 5796 5797 5798 5799 5800 5801 5800 5801 5804 5805 5806 5807 5808 5810 5813 5814 5815 5815 5815
5797 5789 5780 5773 5767 5763 5760 5758 5756 5756 5757 5761 5764 5766 5770 5773 5775 5777 5778 5779 5781 5782 5784 5785 5787 5788 5790 5790 5790 5790 5791 5793 5795 5797 5798 5800 5801 5802 5805 5807 5809 5809 5809 5809
5784 5776 5768 5762 5756 5750 5747 5745 5745 5745 5748 5752 5756 5758 5763 5766 5768 5771 5773 5775 5776 5778 5778 5779 5781 5782 5783 5783 5783 5784 5786 5788 5790 5792 5794 5795 5797 5799 5801 5802 5803 5803 5803 5803
5777 5770 5763 5757 5751 5747 5744 5742 5740 5741 5743 5747 5751 5757 5758 5761 5764 5767 5769 5771 5773 5774 5775 5775 5777 5777 5778 5778 5778 5780 5781 5784 5786 5788 5790 5792 5794 5796 5797 5797 5798 5797 5797 5795
5777 5770 5763 5758 5753 5748 5744 5742 5741 5742 5744 5747 5750 5757 5756 5759 5762 5764 5766 5768 5770 5772 5773 5774 5774 5775 5776 5775 5777 5778 5780 5782 5784 5786 5788 5790 5792 5793 5793 5793 5792 5791 5790 5789
5781 5775 5768 5762 5759 5754 5749 5746 5745 5745 5747 5750 5752 5758 5756 5759 5761 5762 5764 5766 5769 5771 5773 5774 5774 5775 5776 5777 5778 5780 5782 5783 5785 5786 5788 5789 5789 5789 5789 5788 5787 5786 5785 5784
5786 5780 5774 5769 5763 5758 5755 5752 5751 5752 5752 5753 5755 5757 5758 5759 5760 5762 5764 5766 5769 5771 5773 5774 5775 5776 5777 5778 5780 5781 5782 5783 5784 5785 5785 5786 5786 5785 5785 5784 5783 5782 5781 5779
5793 5786 5780 5774 5770 5765 5762 5760 5759 5758 5758 5758 5759 5759 5759 5760 5761 5762 5764 5767 5769 5771 5773 5774 5776 5777 5778 5779 5780 5781 5782 5782 5782 5783 5783 5783 5783 5782 5781 5780 5779 5778 5776 5774
5799 5793 5787 5782 5777 5773 5770 5768 5766 5765 5764 5763 5763 5762 5761 5761 5763 5764 5766 5768 5770 5772 5774 5776 5777 5778 5778 5779 5780 5780 5780 5781 5781 5781 5781 5780 5780 5779 5778 5776 5775 5773 5771 5769
5805 5800 5795 5790 5785 5781 5778 5775 5773 5771 5770 5769 5768 5767 5765 5765 5766 5767 5768 5769 5772 5773 5775 5777 5778 5778 5779 5779 5779 5779 5779 5779 5779 5779 5778 5778 5777 5775 5773 5771 5769 5767 5765 5763
5811 5806 5801 5797 5793 5789 5787 5781 5779 5777 5775 5774 5772 5771 5771 5770 5771 5771 5771 5772 5774 5775 5776 5777 5778 5778 5778 5779 5779 5778 5778 5777 5777 5776 5775 5774 5772 5770 5768 5766 5764 5762 5760 5758
5815 5811 5807 5802 5798 5795 5791 5788 5785 5783 5781 5779 5778 5777 5776 5775 5775 5775 5775 5775 5776 5777 5778 5779 5779 5778 5778 5778 5778 5777 5776 5776 5775 5773 5772 5770 5768 5766 5764 5762 5759 5757 5755 5753
5819 5815 5811 5807 5803 5800 5797 5793 5790 5789 5786 5785 5783 5782 5781 5780 5780 5780 5779 5778 5779 5780 5780 5780 5780 5780 5779 5778 5777 5776 5775 5773 5772 5770 5768 5766 5764 5762 5759 5757 5755 5752 5749 5747
5823 5818 5814 5810 5806 5803 5800 5797 5795 5794 5793 5790 5788 5788 5787 5785 5785 5785 5783 5783 5782 5782 5782 5782 5781 5781 5780 5778 5777 5775 5773 5771 5769 5766 5764 5761 5759 5756 5754 5751 5749 5746 5744 5741
5825 5820 5816 5812 5808 5807 5802 5800 5799 5797 5794 5793 5793 5792 5791 5790 5790 5789 5788 5787 5786 5784 5783 5782 5782 5781 5779 5778 5776 5773 5770 5767 5764 5761 5759 5756 5753 5751 5748 5745 5743 5740 5738 5735
5829 5824 5819 5815 5812 5806 5803 5801 5799 5798 5797 5796 5796 5795 5795 5794 5793 5792 5792 5790 5789 5787 5785 5784 5782 5781 5779 5776 5774 5771 5767 5764 5761 5758 5755 5753 5750 5746 5743 5740 5738 5735 5733 5730
5832 5827 5822 5816 5811 5806 5803 5801 5800 5799 5798 5798 5797 5797 5797 5796 5796 5795 5794 5793 5791 5790 5788 5786 5784 5781 5778 5776 5773 5769 5766 5763 5760 5757 5754 5751 5747 5744 5741 5737 5734 5732 5730 5727
5834 5829 5824 5819 5814 5808 5804 5801 5800 5799 5798 5798 5798 5799 5798 5798 5797 5797 5796 5795 5793 5792 5790 5788 5785 5782 5779 5776 5773 5770 5767 5764 5761 5758 5754 5751 5747 5743 5740 5736 5733 5731 5728 5725
5836 5832 5827 5822 5817 5811 5806 5801 5799 5799 5798 5798 5799 5799 5799 5799 5799 5798 5797 5796 5795 5793 5791 5789 5786 5784 5781 5778 5775 5772 5769 5766 5763 5760 5756 5752 5748 5745 5741 5738 5735 5732 5729 5726